Regional Weather Roundup
Issued by NWS

Home | Current Version | Previous Version | Text Only | Print | Product List | Glossary On
Versions: 1 2 3 4 5 6 7 8 9 10 11 12 13 14 15 16 17 18 19 20 21 22 23 24 25 26 27 28 29 30 31 32 33 34 35 36 37 38 39 40 41 42 43 44 45 46 47 48 49 50
000
ASUS43 KBIS 290220
RWRND

NORTH DAKOTA REGIONAL WEATHER ROUNDUP
NATIONAL WEATHER SERVICE BISMARCK ND
900 PM CDT SAT MAR 28 2015

NOTE: "FAIR" INDICATES FEW OR NO CLOUDS BELOW 12,000 FEET WITH NO
SIGNIFICANT WEATHER AND/OR OBSTRUCTIONS TO VISIBILITY.


NDZ001>003-009>011-017-290300-
NORTHWEST NORTH DAKOTA

CITY           SKY/WX    TMP DP  RH WIND       PRES   REMARKS
WILLISTON      CLOUDY    53  44  71 W20       29.59R
MINOT          CLOUDY    58  47  66 W13       29.47R
MINOT AFB      CLOUDY    51  51  99 W12       29.45R
$$

NDZ018>021-031>035-040>046-290300-
SOUTHWEST NORTH DAKOTA

CITY           SKY/WX    TMP DP  RH WIND       PRES   REMARKS
BISMARCK       LGT RAIN  58  50  75 NW8       29.60F
DICKINSON      CLOUDY    49  42  77 W25G36    29.64R
GARRISON         N/A     55  49  80 W12       29.51R
HETTINGER ARPT CLOUDY    52  44  74 NW26G40   29.67R
$$

NDZ004>008-012>016-024-026-027-054-290300-
NORTHEAST NORTH DAKOTA

CITY           SKY/WX    TMP DP  RH WIND       PRES   REMARKS
GRAND FORKS    MOCLDY    47  31  53 S24G35    29.60F
GRND FRKS AFB  PTCLDY    47  31  54 S24G33    29.57F
DEVILS LAKE    CLOUDY    48  36  61 S17       29.55R
$$

NDZ022-023-025-028>030-036>039-047>053-290300-
SOUTHEAST NORTH DAKOTA

CITY           SKY/WX    TMP DP  RH WIND       PRES   REMARKS
FARGO          LGT RAIN  46  30  53 SE24G38   29.69F
JAMESTOWN      MOCLDY    48  33  56 S21G30    29.55F
$$




USA.gov is the U.S. government's official web portal to all federal, state and local government web resources and services.